This is the latest recevied weather packets stored in our database for station/object N7NIP. If no packets are shown the sender has not sent any weather packets the latest 10 day(s).
| Time | Temp. | Humidity | Pressure | Rain* | Wind** | Luminosity | Snow |
|---|---|---|---|---|---|---|---|
| 1778032989 | 16.67° C | 70% | 1028.9 hPa | 0 mm | - | 56 W/m² | - |
| 1778032687 | 17.22° C | 71% | 1029.2 hPa | 0 mm | - | 60 W/m² | - |
| 1778032384 | 17.78° C | 67% | 1029.1 hPa | 0 mm | - | 62 W/m² | - |
| 1778032081 | 18.89° C | 64% | 1028.9 hPa | 0 mm | - | 64 W/m² | - |
| 1778031778 | 18.89° C | 64% | 1029.1 hPa | 0 mm | - | 143 W/m² | - |
| 1778031474 | 18.33° C | 65% | 1029.3 hPa | 0 mm | - | 158 W/m² | - |
| 1778031171 | 17.78° C | 66% | 1029 hPa | 0 mm | - | 175 W/m² | - |
| 1778030868 | 17.78° C | 66% | 1029.1 hPa | 0 mm | - | 191 W/m² | - |
| 1778030565 | 17.78° C | 67% | 1029.1 hPa | 0 mm | - | 207 W/m² | - |
| 1778030262 | 17.78° C | 67% | 1029.2 hPa | 0 mm | - | 223 W/m² | - |
| 1778029958 | 18.33° C | 66% | 1029.1 hPa | 0 mm | - | 249 W/m² | - |
| 1778029657 | 17.78° C | 66% | 1029.1 hPa | 0 mm | - | 265 W/m² | - |
| 1778029354 | 17.78° C | 68% | 1029.2 hPa | 0 mm | - | 288 W/m² | - |
| 1778029051 | 18.33° C | 66% | 1029.3 hPa | 0 mm | - | 303 W/m² | - |
| 1778028748 | 18.89° C | 64% | 1029.3 hPa | 0 mm | - | 319 W/m² | - |
| 1778028443 | 18.89° C | 65% | 1029.3 hPa | 0 mm | - | 346 W/m² | - |
| 1778028141 | 18.33° C | 67% | 1029.2 hPa | 0 mm | - | 377 W/m² | - |
| 1778027837 | 18.89° C | 66% | 1029.1 hPa | 0 mm | - | 386 W/m² | - |
| 1778027534 | 18.33° C | 66% | 1029.4 hPa | 0 mm | - | 427 W/m² | - |
| 1778027230 | 17.78° C | 71% | 1029.4 hPa | 0 mm | - | 358 W/m² | - |
| 1778026926 | 17.22° C | 70% | 1029.4 hPa | 0 mm | - | 472 W/m² | - |
| 1778026622 | 18.33° C | 67% | 1029.5 hPa | 0 mm | - | 318 W/m² | - |
| 1778026320 | 17.78° C | 68% | 1029.3 hPa | 0 mm | - | 516 W/m² | - |
| 1778026016 | 17.78° C | 69% | 1029.4 hPa | 0 mm | - | 550 W/m² | - |
| 1778025714 | 16.67° C | 72% | 1029.6 hPa | 0 mm | - | 386 W/m² | - |
* Rain latest hour (hover to see other rain measurements)
** Current wind speed in m/s (hover to see current wind gust speed)